星链-11461 (STARLINK-11461)

导读

STARLINK-11461是美国太空探索技术公司SpaceX于2024年12月23日发射的星链低轨通信卫星,隶属于星链全球宽带互联网星座项目。星链卫星采用平板设计与氪工质霍尔推进器,具备自主避撞能力,工作寿命约5至7年,退役后可主动离轨坠入大气层销毁。该卫星旨在为全球尤其是偏远地区提供高速互联网接入服务,支撑星链星座组网,进一步扩大星链全球覆盖范围。

基本信息
目录编号:
62421
目录名称:
STARLINK-11461
国际标识:
2024-249N
轨道中心:
EARTH
卫星名称:
星链-11461
卫星全名:
星链-11461 (STARLINK-11461)
卫星状态:
在轨 (已飞行538 天)
发射日期:
2024-12-23 UTC
国别 :
美国 (US)
星等 :
--
轨道信息
数据来源 国际轨道数据
星历时间: 2026-06-14T10:34:31+0800
16小时前
查看轨道信息
半长轴: 6734.557km
偏心率: 0.0001517
轨道倾角: 42.998°
近地点辐角 291.799°
升交点赤经 306.570°
平近点角 68.271°
近地点: 355.398km
远地点: 357.442km
周期: 91.669分钟
每日圈数: 15.708663
详细信息
固有亮度:
5
最大亮度:
2.5
卫星平台:
Starlink V1.0
覆盖范围:
全球
运营商:
太空探索技术公司
运营商所在国:
美国
制造商(研发单位):
太空探索技术公司
制造商所在国:
美国
使用方式:
暂无
卫星简介
Starlink 计划是 SpaceX 推出的全球卫星互联网项目,通过发射低轨道卫星,为全球尤其是偏远地区提供高速、低延迟的互联网服务。自 2019 年起,Starlink 已部署数千颗卫星,旨在缩小全球数字鸿沟,推动互联网普及。该项目还为军事、航空等行业提供通信支持,带来广泛经济效益。
2D轨道图
3D轨道图
轨道高度分析图
轨道倾角分析图
轨道综合分析图
查看轨道综合分析图